Showing default

SKYSAT C2, 41773

Orbit data source: Space-Track

SKYSAT C2, 41773 is a payload satellite owned by Terra Bella (US) in SSO that was launched on Fri, 16 Sep 2016 UTC via a VEGA launch vehicle from the French Guiana (FRGUI). Payload-class satellites include a variety of spacecraft equipped with specific instruments for various scientific and technological missions. These include communications satellites like Starlink; space stations such as the ISS; scientific satellites like the Hubble; Earth observation satellites from companies like Planet Labs, Umbra, and HawkEye 360; GPS; miniature CubeSats for education and research; and military/defense satellites.

Loading next visibility...
Identifier
41773, 2016-058D
Orbit
SSO
Country
Flag of USUS
Related business
Manufacturer
SS/Loral (MDA)
Mission
Operational Commercial Imaging
Bus & Motor
SKYSAT-GEN2, Unknown motor
Mass
110 kg wet, 110 kg dry
Launch date (UTC)
2016-09-16 (10 years ago)
Launch vehicle
VEGA
Launch site
French Guiana (FRGUI)
Object type
Payload
Rocket body
Debris
Shape & HBR
Box, 1.0 m
Radar Cross Section
0.888 m², Medium (>0.1 m² and < 1m²)

Expand to show TLE details & history
Last TLE update: 21 hours ago

TLE from 21 hours ago
0 SKYSAT C2
1 41773U 16058D   26207.57207304  .00012234  00000-0  28023-3 0  9997
2 41773  97.0165 228.2048 0000948 231.0603 129.0561 15.42906885551120
Epoch: 2026-07-26T13:43Z
TLE epoch observation values (Epoch: 2026-07-26T13:43:47.110Z)
Latitude
-0.00005°
Longitude
77.99044°
Altitude
441.075 km
Speed
7.647 km/s
True Right ascension
15h 12m 49s
True Declination
0° 00' 00"
Sunlit
Object was in daylight at epoch
Visualization orbit readout
Latitude
Unknown
Longitude
Unknown
Altitude
Unknown
Speed
Unknown
Apparent Right ascension
Unknown
Apparent Declination
Unknown
Sunlit
N/A
Visualization observer readout
Local Sidereal Time
00:02:03
Azimuth
Unknown
Elevation
Unknown
Doppler factor
Unknown
Orbital elements
Apogee altitude
435.1 km
Perigee altitude
433.808 km
Semi-major axis
6,812.591 km
Eccentricity
0.00009
Inclination
97.0165°
RAAN
228.2048°
Arg. of periapsis
231.0603°
True anomaly
129.06454°
Mean anomaly
129.0561°
Eccentric anomaly
129.06032°
Mean motion
3.85989 °/min
Orbital period
93.27 mins
BSTAR
0.00028023
Loading maneuver chart data...
Computing Atmospheric mass density...
Loading historical data...
Loading historical data...
Loading historical data...
Loading historical data...
Loading historical data...
Loading historical data...
Loading historical data...

Documentation

Showing up to 5 results
|